Dewpoint
14 12 15 19 27 34 44 46 45 47 50 51 52 50 50 56 54 54 55 53 53 54 55 58 59 60 61 63 63 65 66 68 68 67 65 66 65 66 66 68 69 70 71 71
13 12 14 9 15 25 27 29 27 35 53 50 52 52 54 53 55 54 54 53 52 54 53 55 57 59 61 62 63 65 66 67 67 66 65 65 66 66 66 68 69 69 70 71
15 12 14 9 9 9 15 26 27 26 52 52 51 46 53 55 55 55 55 54 55 54 53 55 57 59 60 61 63 64 66 66 67 67 66 68 68 68 67 67 67 68 69 70
22 21 18 16 11 8 12 15 17 24 36 36 51 34 45 49 54 55 54 55 55 56 55 56 58 59 60 61 63 64 66 66 67 67 66 65 64 63 64 65 67 67 69 70
20 18 19 18 17 11 13 18 17 26 39 45 47 41 37 48 46 51 54 53 54 56 56 56 58 59 60 61 62 64 65 66 67 67 67 66 66 65 66 66 67 68 69 70
21 21 21 20 17 13 31 38 44 44 46 37 40 41 26 35 44 47 52 54 53 54 56 56 58 59 60 62 62 64 66 66 67 68 68 68 67 66 65 66 65 66 67 68
19 19 21 20 18 16 28 33 34 32 35 31 32 38 29 40 46 49 52 54 55 53 55 56 57 59 61 62 63 64 66 66 67 67 67 68 68 68 67 67 65 65 66 66
16 14 19 20 19 18 19 29 23 22 27 28 28 23 25 46 51 57 57 57 56 55 54 56 57 58 61 62 63 64 65 66 67 67 67 69 69 67 66 67 66 66 66 66
19 18 22 19 19 19 19 24 19 19 21 18 22 32 41 47 50 55 56 56 55 55 54 56 57 58 62 63 62 65 65 66 67 67 68 68 69 68 66 68 68 66 68 66
21 18 22 18 18 22 19 21 16 18 16 14 22 35 30 45 45 49 54 56 57 57 57 57 57 58 61 62 63 65 65 65 66 66 67 67 67 68 69 69 68 68 68 70
19 23 22 19 17 17 20 20 26 24 24 13 13 21 42 44 46 46 51 56 58 58 58 59 59 60 61 63 63 64 65 65 66 66 67 67 67 67 68 68 68 69 69 70
21 20 19 18 22 20 20 20 23 16 25 30 28 21 39 45 46 48 53 56 60 59 60 60 60 62 62 63 64 63 64 65 67 66 67 67 68 68 67 68 69 69 69 69
23 19 20 16 18 18 20 25 24 24 25 28 18 19 42 46 47 50 51 55 59 60 60 61 62 62 62 63 64 64 64 65 65 67 67 67 67 68 67 68 69 69 70 70
23 22 21 18 18 18 19 20 27 24 22 23 21 19 38 45 46 49 52 57 56 59 60 61 62 63 64 64 65 65 65 66 66 66 66 67 67 67 67 68 69 69 70 69
25 22 24 22 20 15 20 21 26 22 24 24 24 30 31 44 47 48 53 58 57 59 60 61 62 63 64 64 65 66 67 66 66 66 67 67 68 68 68 68 68 69 69 69
20 23 23 20 17 18 19 22 24 23 24 27 27 28 39 45 52 53 56 57 58 58 60 61 62 62 62 63 65 66 67 67 69 67 67 67 68 68 68 69 69 69 69 69
24 22 22 19 24 23 19 22 27 28 29 27 27 28 45 46 47 50 53 57 58 59 60 60 61 61 61 62 62 63 64 66 67 68 69 69 69 69 69 69 68 68 68 69
30 27 28 26 25 17 22 29 32 32 33 34 33 34 41 44 49 51 51 51 55 58 60 60 61 60 60 61 62 64 64 64 65 65 65 65 67 68 69 69 69 69 68 68
34 30 25 25 22 23 28 33 32 31 30 37 36 36 43 53 53 50 54 55 56 59 60 59 60 60 59 61 61 62 63 63 62 62 62 63 64 66 67 68 69 69 69 68
27 32 26 25 21 19 23 35 35 33 24 34 39 38 46 51 37 39 52 57 59 60 59 59 59 58 58 60 61 61 60 61 61 61 61 61 61 62 63 67 67 68 69 69
26 27 23 24 21 22 27 35 37 25 21 34 41 44 51 47 48 55 58 58 59 59 59 59 58 58 58 59 61 60 61 60 61 60 60 59 60 61 62 63 67 68 68 68
27 25 25 26 24 21 31 38 30 33 40 42 46 48 52 54 56 57 56 56 57 57 57 58 58 58 58 59 61 61 60 62 61 60 59 58 58 61 63 63 67 66 66 63
25 29 26 27 26 37 41 41 45 43 46 47 48 50 51 54 54 56 56 56 57 57 57 57 58 58 58 59 62 61 61 62 61 60 57 56 55 54 58 65 65 64 61 59
39 37 30 29 38 39 43 49 47 48 49 51 51 52 53 55 56 55 56 57 56 56 56 56 57 57 58 59 61 62 62 62 61 59 57 56 55 52 51 53 58 58 58 57
41 41 40 40 46 47 46 48 51 52 51 51 52 54 54 54 55 55 56 56 55 54 54 55 57 58 58 59 61 62 61 61 61 59 58 57 57 56 52 47 48 54 54 57
43 42 40 31 44 44 45 50 53 52 51 52 52 54 55 55 55 56 55 54 53 54 55 56 57 57 58 59 60 61 62 61 60 58 58 58 57 57 56 54 51 47 47 48
Wind_Speed
2 8 14 12 7 2 5 6 8 2 7 11 17 14 17 15 17 20 19 20 19 21 19 18 18 17 15 15 16 17 16 15 11 9 8 8 8 6 6 6 6 5 5 5
4 15 8 3 5 5 4 6 7 2 3 10 6 14 15 18 24 25 24 22 21 19 18 18 19 20 20 19 18 17 18 17 15 12 8 6 7 6 7 7 7 6 6 6
12 2 4 10 7 9 8 13 7 4 4 5 4 5 6 16 17 20 22 24 22 23 21 18 20 22 20 20 21 20 20 18 16 13 8 5 5 2 6 7 8 8 8 8
8 7 7 6 11 12 15 14 7 4 4 5 2 5 6 9 14 19 22 23 25 23 21 17 20 22 23 23 20 19 18 18 17 16 13 13 11 10 10 10 9 8 9 10
6 9 11 8 13 16 14 4 5 5 8 3 2 4 3 1 6 17 20 23 27 24 23 21 23 24 24 20 22 20 18 18 17 18 17 16 15 10 7 9 9 9 9 9
11 2 5 7 5 23 14 7 8 7 3 6 4 5 1 0 1 5 9 22 26 26 24 22 21 17 18 18 19 19 20 20 19 19 20 19 16 14 10 10 10 10 9 9
8 15 6 7 5 7 10 11 6 6 4 6 2 5 8 5 8 10 13 13 22 25 25 23 22 18 19 20 23 24 23 22 21 21 20 20 19 17 15 13 11 10 10 10
12 11 10 11 10 10 15 14 9 9 9 9 3 6 1 2 6 6 7 8 13 22 25 26 26 23 23 25 24 22 23 22 22 22 22 20 19 17 16 15 13 11 11 12
7 9 3 5 4 7 6 9 2 5 2 5 3 5 7 2 2 1 3 1 7 15 22 24 23 23 22 22 25 23 22 21 20 20 19 19 18 19 17 15 12 12 12 12
4 8 4 3 6 10 5 13 5 3 12 14 6 5 4 7 6 3 2 2 4 9 15 19 22 22 20 22 23 19 21 23 23 20 19 19 20 20 19 16 16 15 13 12
12 5 4 6 8 14 7 6 4 3 2 15 15 11 8 13 8 5 4 3 1 7 11 15 16 17 18 18 21 23 23 22 20 20 19 19 19 20 19 18 18 16 14 12
13 4 9 3 1 4 3 8 10 12 7 2 3 7 4 9 5 4 3 1 2 1 6 8 12 13 14 17 17 21 20 18 17 17 19 20 20 20 22 21 19 16 16 15
15 11 6 6 5 2 5 6 5 5 3 10 14 9 2 5 8 8 5 3 2 4 4 3 4 7 10 12 14 16 17 14 16 15 15 17 19 21 23 23 21 18 17 16
20 8 12 14 10 7 7 9 11 8 10 11 16 14 10 15 14 10 6 3 3 4 4 4 3 2 3 6 8 10 13 12 14 17 20 16 19 21 23 23 22 22 21 20
8 12 7 2 6 7 13 14 13 13 8 11 7 14 12 19 16 9 5 2 3 4 5 5 5 4 4 3 1 1 6 11 15 19 20 22 19 18 21 20 20 19 20 21
3 8 6 4 5 4 8 9 11 9 7 7 6 10 5 8 5 7 6 6 4 3 3 5 5 6 6 5 4 3 1 2 5 13 19 20 18 17 20 20 21 19 20 21
3 11 10 9 4 5 6 16 14 8 7 9 12 7 9 9 10 7 7 7 6 6 6 5 6 5 5 5 3 3 2 1 2 7 10 15 18 21 22 21 20 21 22 19
4 7 3 7 10 8 2 1 6 10 6 9 3 6 5 3 3 4 7 8 9 8 7 6 6 5 3 2 3 3 3 3 3 6 10 13 17 21 23 22 21 21 22 21
20 5 7 9 10 3 3 7 9 10 8 11 7 6 3 2 1 0 2 5 3 4 5 6 5 5 2 1 2 4 3 4 6 8 11 13 16 21 22 23 23 21 18 22
10 5 8 6 8 11 8 9 7 7 9 14 14 9 7 6 6 4 6 3 5 6 7 7 5 3 2 1 2 2 3 7 7 9 13 16 18 22 24 24 24 22 21 21
9 3 10 12 6 4 6 11 11 11 3 5 15 10 12 7 4 2 3 5 6 6 7 6 4 4 2 3 3 1 2 5 7 11 14 16 19 25 27 24 23 19 19 16
12 13 6 5 5 8 15 13 13 7 4 4 9 11 11 5 4 4 4 5 6 6 6 6 6 6 5 4 4 3 1 5 7 11 13 16 18 15 16 21 17 17 15 18
9 8 13 12 11 1 25 4 6 7 8 6 10 8 8 8 7 7 7 7 7 7 6 5 5 4 5 5 6 5 1 3 7 12 14 17 16 17 18 7 13 15 16 17
3 1 6 7 9 9 21 5 8 7 7 9 6 11 10 9 9 8 6 4 3 3 4 4 5 6 7 6 6 4 3 2 7 11 14 16 16 17 21 18 10 9 9 16
3 5 8 4 2 5 12 7 10 11 11 11 10 10 10 11 10 8 6 5 4 3 2 3 4 5 5 5 6 5 4 5 9 7 13 14 17 16 20 24 18 17 16 11
5 3 7 9 14 7 11 18 14 15 12 12 13 12 11 13 13 10 9 9 6 5 3 4 3 3 4 5 7 7 5 6 5 10 15 13 15 15 16 23 27 37 35 34
Wind_Direction
136 209 211 201 204 223 207 223 251 287 190 190 217 235 228 200 202 209 216 214 221 222 223 220 216 210 204 200 197 203 198 202 198 192 197 215 213 205 220 218 213 168 179 182
173 230 221 177 197 204 200 230 252 237 152 206 194 232 233 208 211 214 212 215 220 227 225 218 211 206 207 201 201 204 203 195 201 208 200 210 207 211 217 213 212 182 199 206
212 207 177 194 200 198 218 239 233 271 152 220 278 257 204 221 222 221 225 227 225 225 225 211 204 204 201 204 201 203 200 198 197 208 203 183 176 141 200 209 216 209 201 212
234 210 216 196 219 211 239 233 232 225 228 249 240 284 255 221 224 228 224 217 224 223 226 208 204 202 202 204 201 204 203 202 198 197 208 210 214 210 209 207 209 215 209 217
211 189 186 209 224 190 235 173 204 218 189 213 134 254 264 200 238 233 228 224 220 216 215 213 206 203 203 198 199 203 200 202 200 198 206 214 223 233 228 205 211 211 207 206
237 236 219 231 210 195 159 110 84 85 162 237 205 245 309 3 135 277 222 223 219 212 211 212 209 196 203 197 200 201 200 202 203 202 205 214 222 225 221 207 208 208 203 204
241 255 239 197 163 178 200 166 169 184 194 239 103 212 265 266 271 266 278 249 220 213 205 204 200 187 196 198 201 199 200 203 204 207 212 215 221 226 225 226 222 212 213 213
221 226 202 193 213 184 182 196 205 221 212 226 171 241 210 303 288 293 294 270 213 206 206 202 204 200 200 204 205 203 205 205 202 205 211 214 219 223 228 231 234 232 226 224
196 226 214 216 155 170 163 201 121 117 80 223 194 261 259 210 220 0 354 71 179 197 203 204 201 201 201 201 208 202 202 205 203 208 214 216 218 221 224 227 228 236 243 238
206 230 176 145 133 54 193 148 189 217 222 235 209 256 221 187 167 156 125 161 184 193 198 204 208 208 205 208 210 205 207 208 204 203 207 216 221 223 227 228 230 227 233 238
204 243 143 163 207 184 151 175 82 136 259 235 240 238 219 188 179 156 127 97 211 221 204 201 208 213 213 207 206 209 207 209 203 204 208 210 219 227 228 226 225 225 232 234
205 225 236 203 335 252 182 174 187 223 200 184 262 239 173 202 189 186 196 114 45 321 208 207 214 213 212 212 213 215 218 212 202 212 207 206 212 219 225 226 226 226 224 230
169 218 188 149 132 157 180 153 153 148 157 209 232 232 181 207 199 205 203 173 104 91 132 178 199 213 226 227 226 226 222 224 214 202 223 214 214 218 223 224 224 224 226 225
170 182 222 213 194 151 167 174 172 199 215 214 226 238 210 210 214 201 209 147 104 103 110 112 108 145 227 233 233 234 237 228 223 222 234 235 225 226 225 223 219 218 220 226
203 205 185 129 142 161 167 173 180 191 194 215 231 218 223 209 210 211 207 180 149 125 108 87 84 76 79 90 3 272 241 240 228 226 233 238 239 233 236 234 230 226 231 221
268 166 150 136 142 155 172 193 203 216 199 227 220 229 214 196 174 198 197 211 210 185 149 115 94 89 79 73 70 89 59 247 234 236 239 246 246 242 237 235 226 225 228 236
284 149 174 167 149 149 230 215 207 207 211 219 206 212 154 179 198 210 216 209 202 209 198 175 143 128 111 84 62 38 6 337 275 253 251 251 251 248 248 242 239 232 227 225
294 150 104 136 153 219 272 231 213 225 217 198 205 173 172 139 146 204 217 221 216 204 191 165 154 144 103 92 71 25 42 18 327 289 278 273 263 260 256 252 239 231 235 233
213 238 117 161 192 316 240 204 182 187 212 204 216 208 154 110 332 31 270 227 223 186 168 160 151 151 144 126 23 357 14 357 337 319 305 295 285 276 259 253 250 243 237 234
184 236 155 150 181 213 227 178 153 145 239 209 212 212 185 164 216 240 20 157 150 139 150 157 159 156 174 235 327 311 339 334 329 315 299 289 280 270 265 250 239 234 224 224
179 166 169 164 184 227 226 155 150 192 224 190 199 186 170 197 235 99 100 122 146 148 155 157 173 204 202 254 255 241 354 335 327 328 320 305 292 269 250 250 230 224 221 209
178 176 170 130 183 233 160 141 191 194 139 149 164 174 188 195 169 179 179 171 173 179 182 185 184 180 185 228 230 174 6 352 357 356 347 338 330 317 240 236 200 209 194 158
247 204 180 189 206 110 179 158 150 154 143 151 164 163 177 183 197 198 203 189 184 209 216 197 196 192 197 220 212 176 115 26 27 19 11 4 355 10 13 197 184 178 160 154
225 51 182 159 205 202 187 113 155 143 133 148 139 154 162 167 168 181 180 180 198 219 220 210 196 203 207 207 203 175 149 56 65 42 35 25 17 29 40 28 41 104 146 152
253 173 191 205 170 135 199 185 153 135 136 134 128 145 153 154 158 155 156 152 160 168 190 185 198 199 200 188 183 135 172 66 71 64 54 38 33 38 57 55 41 52 60 85
198 211 193 203 192 168 191 173 151 143 150 149 140 141 151 155 151 159 149 146 151 123 127 142 159 164 164 174 142 136 156 103 108 88 70 53 47 43 63 76 63 54 59 71